DLH46 BKPR-LSZH

Flight info

Callsign DLH46
Flight time N/A
Altitude 40000
Route KUKAD1A KUKAD DCT RETRA DCT GACMO DCT EVTON DCT KOMAR DCT KUSIB DCT DOL DCT ERKIR DCT KPT L856 NEGRA
Aircraft A346/H-SDE2E3FGHIJ3J4J5M1RWXY/LB1D1

Departure

Time 2026-04-15 21:45
Airport Priština Adem Jashari International Airport (BKPR)

Arrival

Time N/A
Airport Zürich Airport (LSZH)
Time Latitude Longitude Altitude Speed Heading
2026-04-15 21:24 42.58457 21.03113 1785 ft 0 kts 302°
2026-04-15 21:40 42.58460 21.03081 1786 ft 13 kts 258°
2026-04-15 21:40 42.58418 21.03104 1785 ft 10 kts 92°
2026-04-15 21:41 42.58407 21.03169 1787 ft 5 kts 103°
2026-04-15 21:41 42.58404 21.03221 1785 ft 7 kts 76°
2026-04-15 21:41 42.58426 21.03293 1787 ft 10 kts 66°
2026-04-15 21:41 42.58465 21.03372 1788 ft 10 kts 36°
2026-04-15 21:42 42.58466 21.03439 1790 ft 9 kts 146°
2026-04-15 21:42 42.58394 21.03471 1787 ft 9 kts 171°
2026-04-15 21:42 42.58362 21.03476 1787 ft 0 kts 173°
2026-04-15 21:44 42.58361 21.03476 1787 ft 1 kts 173°
2026-04-15 21:44 42.58343 21.03479 1789 ft 6 kts 175°
2026-04-15 21:44 42.58006 21.03514 1782 ft 96 kts 176°
2026-04-15 21:44 42.57057 21.03609 1788 ft 174 kts 175°
2026-04-15 21:45 42.55736 21.03761 2473 ft 189 kts 174°
2026-04-15 21:45 42.54431 21.03897 3693 ft 194 kts 178°
2026-04-15 21:45 42.53134 21.03256 4674 ft 209 kts 222°
2026-04-15 21:45 42.52497 21.01547 5742 ft 206 kts 257°
2026-04-15 21:46 42.52231 20.99589 6480 ft 217 kts 259°
2026-04-15 21:46 42.51953 20.97480 7034 ft 234 kts 258°
2026-04-15 21:46 42.51627 20.95224 7535 ft 254 kts 257°
2026-04-15 21:46 42.51248 20.92783 8125 ft 274 kts 257°
2026-04-15 21:47 42.50824 20.90179 8791 ft 289 kts 256°
2026-04-15 21:47 42.50376 20.87490 9733 ft 294 kts 256°
2026-04-15 21:47 42.49917 20.84775 10681 ft 298 kts 256°
2026-04-15 21:47 42.49438 20.81973 11321 ft 313 kts 256°
2026-04-15 21:48 42.48929 20.79009 11849 ft 332 kts 256°
2026-04-15 21:48 42.48390 20.75873 12347 ft 351 kts 256°
2026-04-15 21:48 42.47819 20.72563 12817 ft 370 kts 256°
2026-04-15 21:48 42.47219 20.69089 13349 ft 386 kts 256°
2026-04-15 21:49 42.46600 20.65511 14150 ft 392 kts 256°
2026-04-15 21:49 42.45973 20.61897 14990 ft 396 kts 256°
2026-04-15 21:49 42.45338 20.58239 15823 ft 400 kts 256°
2026-04-15 21:49 42.44695 20.54550 16647 ft 404 kts 256°
2026-04-15 21:50 42.44043 20.50820 17473 ft 409 kts 256°
2026-04-15 21:50 42.43382 20.47041 18274 ft 413 kts 256°
2026-04-15 21:50 42.42722 20.43280 18953 ft 419 kts 255°
2026-04-15 21:50 42.42043 20.39414 19631 ft 423 kts 256°
2026-04-15 21:51 42.41356 20.35512 20357 ft 427 kts 255°
2026-04-15 21:51 42.40664 20.31584 21072 ft 430 kts 255°
2026-04-15 21:51 42.39965 20.27628 21776 ft 434 kts 255°
2026-04-15 21:51 42.39254 20.23623 22466 ft 439 kts 255°
2026-04-15 21:52 42.38537 20.19589 23127 ft 443 kts 255°
2026-04-15 21:52 42.37810 20.15512 23763 ft 448 kts 255°
2026-04-15 21:52 42.37076 20.11399 24342 ft 451 kts 255°
2026-04-15 21:52 42.36334 20.07258 24969 ft 453 kts 255°
2026-04-15 21:53 42.35590 20.03120 25627 ft 453 kts 255°
2026-04-15 21:53 42.34843 19.98977 26289 ft 454 kts 255°
2026-04-15 21:53 42.34094 19.94827 26932 ft 455 kts 255°
2026-04-15 21:53 42.33342 19.90671 27552 ft 456 kts 255°
2026-04-15 21:54 42.32587 19.86499 28187 ft 457 kts 255°
2026-04-15 21:54 42.31829 19.82320 28815 ft 458 kts 256°
2026-04-15 21:54 42.31068 19.78135 29523 ft 456 kts 256°
2026-04-15 21:54 42.30312 19.73988 30436 ft 451 kts 256°
2026-04-15 21:55 42.29577 19.69947 31258 ft 445 kts 255°
2026-04-15 21:55 42.28842 19.65908 32011 ft 440 kts 255°
2026-04-15 21:55 42.28107 19.61901 32766 ft 437 kts 255°
2026-04-15 21:55 42.27374 19.57926 33512 ft 433 kts 255°
2026-04-15 21:56 42.26647 19.53994 34196 ft 430 kts 255°
2026-04-15 21:56 42.25925 19.50091 34738 ft 428 kts 255°
2026-04-15 21:56 42.25384 19.46123 35128 ft 431 kts 263°
2026-04-15 21:56 42.25386 19.42048 35471 ft 437 kts 273°
2026-04-15 21:57 42.25933 19.37994 35812 ft 442 kts 283°
2026-04-15 21:57 42.27025 19.34087 36163 ft 447 kts 294°
2026-04-15 21:57 42.28643 19.30473 36500 ft 452 kts 304°
2026-04-15 21:57 42.30744 19.27296 36848 ft 456 kts 315°
2026-04-15 21:58 42.33266 19.24672 37204 ft 459 kts 325°
2026-04-15 21:58 42.35966 19.22360 37606 ft 459 kts 327°
2026-04-15 21:58 42.38689 19.20097 38017 ft 459 kts 327°
2026-04-15 21:58 42.41410 19.17843 38380 ft 459 kts 328°
2026-04-15 21:59 42.44142 19.15569 38640 ft 461 kts 328°
2026-04-15 21:59 42.46885 19.13279 38833 ft 464 kts 328°
2026-04-15 21:59 42.49633 19.10974 39019 ft 465 kts 328°
2026-04-15 21:59 42.52387 19.08654 39261 ft 465 kts 328°
2026-04-15 22:00 42.55101 19.06369 39493 ft 465 kts 328°
2026-04-15 22:00 42.57855 19.04047 39702 ft 466 kts 328°
2026-04-15 22:00 42.60610 19.01720 39876 ft 467 kts 328°
2026-04-15 22:00 42.63372 18.99384 40050 ft 468 kts 328°
2026-04-15 22:01 42.66133 18.97046 40059 ft 467 kts 328°
2026-04-15 22:01 42.71640 18.92371 40071 ft 467 kts 328°
2026-04-15 22:02 42.77154 18.87679 40076 ft 467 kts 328°
2026-04-15 22:02 42.82656 18.82987 40081 ft 466 kts 328°
2026-04-15 22:03 42.88154 18.78287 40079 ft 465 kts 328°
2026-04-15 22:03 42.93625 18.73602 40084 ft 464 kts 328°
2026-04-15 22:04 42.99083 18.68917 40087 ft 463 kts 328°
2026-04-15 22:04 43.04540 18.64222 40087 ft 463 kts 328°
2026-04-15 22:05 43.09987 18.59526 40091 ft 463 kts 328°
2026-04-15 22:05 43.15390 18.54722 40092 ft 463 kts 325°
2026-04-15 22:06 43.20639 18.49566 40098 ft 464 kts 324°
2026-04-15 22:06 43.25821 18.44417 40096 ft 464 kts 324°
2026-04-15 22:07 43.31035 18.39224 40095 ft 462 kts 324°
2026-04-15 22:07 43.36235 18.34049 40101 ft 463 kts 324°
2026-04-15 22:08 43.41446 18.28849 40098 ft 462 kts 324°
2026-04-15 22:08 43.46668 18.23629 40100 ft 464 kts 324°
2026-04-15 22:09 43.51877 18.18406 40102 ft 463 kts 324°
2026-04-15 22:09 43.57080 18.13183 40110 ft 461 kts 324°
2026-04-15 22:10 43.62265 18.07964 40117 ft 462 kts 324°
2026-04-15 22:10 43.67460 18.02722 40122 ft 462 kts 324°
2026-04-15 22:11 43.72647 17.97478 40128 ft 463 kts 324°
2026-04-15 22:11 43.77839 17.92218 40124 ft 462 kts 324°
2026-04-15 22:12 43.83016 17.86962 40123 ft 460 kts 324°
2026-04-15 22:12 43.88153 17.81734 40124 ft 461 kts 324°
2026-04-15 22:13 43.93329 17.76454 40138 ft 461 kts 323°
2026-04-15 22:13 43.98504 17.71164 40138 ft 462 kts 323°
2026-04-15 22:14 44.03670 17.65873 40140 ft 460 kts 323°
2026-04-15 22:14 44.08829 17.60573 40139 ft 461 kts 324°
2026-04-15 22:15 44.13993 17.55260 40145 ft 461 kts 324°
2026-04-15 22:15 44.19160 17.49932 40151 ft 462 kts 323°
2026-04-15 22:16 44.24321 17.44597 40151 ft 461 kts 324°
2026-04-15 22:16 44.29470 17.39262 40152 ft 461 kts 324°
2026-04-15 22:17 44.34580 17.33956 40152 ft 461 kts 324°
2026-04-15 22:17 44.39725 17.28605 40157 ft 461 kts 324°
2026-04-15 22:18 44.44869 17.23240 40154 ft 461 kts 324°
2026-04-15 22:18 44.50010 17.17865 40164 ft 461 kts 324°
2026-04-15 22:19 44.55145 17.12481 40159 ft 461 kts 324°
2026-04-15 22:19 44.60287 17.07081 40162 ft 461 kts 324°
2026-04-15 22:20 44.65396 17.01703 40156 ft 461 kts 324°
2026-04-15 22:20 44.69830 16.97446 40159 ft 461 kts 329°
2026-04-15 22:21 44.76381 16.92488 40158 ft 460 kts 336°
2026-04-15 22:21 44.82228 16.88833 40157 ft 460 kts 337°
2026-04-15 22:22 44.87134 16.85792 40155 ft 460 kts 335°
2026-04-15 22:22 44.92714 16.81363 40160 ft 461 kts 327°
2026-04-15 22:23 44.97780 16.75809 40158 ft 462 kts 319°
2026-04-15 22:23 45.02223 16.69252 40157 ft 463 kts 311°
2026-04-15 22:24 45.06283 16.62178 40155 ft 462 kts 310°
2026-04-15 22:24 45.10306 16.55093 40159 ft 461 kts 310°
2026-04-15 22:25 45.14339 16.48004 40159 ft 461 kts 310°
2026-04-15 22:25 45.18350 16.40964 40163 ft 461 kts 310°
2026-04-15 22:26 45.22378 16.33876 40154 ft 462 kts 310°
2026-04-15 22:26 45.26406 16.26769 40158 ft 462 kts 310°
2026-04-15 22:27 45.30436 16.19635 40158 ft 462 kts 310°
2026-04-15 22:27 45.34457 16.12499 40152 ft 462 kts 310°
2026-04-15 22:28 45.38473 16.05350 40146 ft 463 kts 310°
2026-04-15 22:28 45.42495 15.98173 40159 ft 464 kts 310°
2026-04-15 22:29 45.46516 15.90981 40161 ft 463 kts 311°
2026-04-15 22:29 45.47843 15.88605 40162 ft 463 kts 311°